Time,TemperatureF,DewpointF,PressureIn,WindDirection,WindDirectionDegrees,WindSpeedMPH,WindSpeedGustMPH,Humidity,HourlyPrecipIn,Conditions,Clouds,dailyrainin,SolarRadiationWatts/m^2,SoftwareType,DateUTC
2013-04-23 07:00:00,25.0,19.0,30.24,NNW,344,8.0,-999.0,78,-99.99,,,-99.99,64.080002,,2013-04-23 13:00:00,
2013-04-23 07:52:00,25.0,19.0,30.24,NNW,344,8.0,-999.0,78,-99.99,,,-99.99,64.080002,,2013-04-23 13:52:00,
2013-04-23 08:00:00,26.0,20.0,30.25,NNW,342,9.0,-999.0,76,-99.99,,,-99.99,135.699997,,2013-04-23 14:00:00,
2013-04-23 08:52:00,26.0,20.0,30.25,NNW,342,9.0,-999.0,76,-99.99,,,-99.99,135.699997,,2013-04-23 14:52:00,
2013-04-23 09:00:00,27.0,20.0,30.25,NNW,331,10.0,-999.0,73,-99.99,,,-99.99,297.200012,,2013-04-23 15:00:00,
2013-04-23 09:53:00,27.0,20.0,30.25,NNW,331,10.0,-999.0,73,-99.99,,,-99.99,297.200012,,2013-04-23 15:53:00,
2013-04-23 10:00:00,28.0,20.0,30.24,NW,326,12.0,-999.0,70,-99.99,,,-99.99,386.700012,,2013-04-23 16:00:00,
2013-04-23 10:53:00,28.0,20.0,30.24,NW,326,12.0,-999.0,70,-99.99,,,-99.99,386.700012,,2013-04-23 16:53:00,
2013-04-23 11:00:00,29.0,20.0,30.24,NNW,329,13.0,-999.0,68,-99.99,,,-99.99,323.600006,,2013-04-23 17:00:00,
2013-04-23 11:53:00,29.0,20.0,30.24,NNW,329,13.0,-999.0,68,-99.99,,,-99.99,323.600006,,2013-04-23 17:53:00,
2013-04-23 12:00:00,30.0,17.0,30.23,NNW,332,12.0,-999.0,57,-99.99,,,-99.99,349.600006,,2013-04-23 18:00:00,
2013-04-23 12:52:00,30.0,17.0,30.23,NNW,332,12.0,-999.0,57,-99.99,,,-99.99,349.600006,,2013-04-23 18:52:00,
2013-04-23 13:00:00,34.0,18.0,30.20,NW,320,10.0,-999.0,53,-99.99,,,-99.99,616.299988,,2013-04-23 19:00:00,
2013-04-23 13:52:00,34.0,18.0,30.20,NW,320,10.0,-999.0,53,-99.99,,,-99.99,616.299988,,2013-04-23 19:52:00,
2013-04-23 14:00:00,36.0,22.0,30.18,NW,308,11.0,-999.0,55,-99.99,,,-99.99,739.000000,,2013-04-23 20:00:00,
2013-04-23 14:52:00,36.0,22.0,30.18,NW,308,11.0,-999.0,55,-99.99,,,-99.99,739.000000,,2013-04-23 20:52:00,
2013-04-23 15:00:00,37.0,16.0,30.16,NW,318,12.0,-999.0,42,-99.99,,,-99.99,560.299988,,2013-04-23 21:00:00,
2013-04-23 15:52:00,37.0,16.0,30.16,NW,318,12.0,-999.0,42,-99.99,,,-99.99,560.299988,,2013-04-23 21:52:00,
2013-04-23 16:00:00,41.0,20.0,30.14,NW,304,11.0,-999.0,43,-99.99,,,-99.99,749.000000,,2013-04-23 22:00:00,
2013-04-23 16:52:00,41.0,20.0,30.14,NW,304,11.0,-999.0,43,-99.99,,,-99.99,749.000000,,2013-04-23 22:52:00,
2013-04-23 17:00:00,40.0,16.0,30.13,NW,325,10.0,-999.0,37,-99.99,,,-99.99,481.100006,,2013-04-23 23:00:00,
2013-04-23 17:52:00,40.0,16.0,30.13,NW,325,10.0,-999.0,37,-99.99,,,-99.99,481.100006,,2013-04-23 23:52:00,